EW6281 Weather Reports


time (UTC)temp
F
wind
direction
speed
knots
gust
knots
rain 1hr
in
rain 24hr
in
rain mn
in
humidity
%
barometer
mb
20260506114556 50 22 5.2 12.2 0.00 0.00 0.00 79 1013.3
20260506113106 48 49 3.5 10.4 0.00 0.00 0.00 82 1013.5
20260506111552 47 19 1.7 7.8 0.00 0.00 0.00 81 1013.5
20260506110058 48 11 1.7 10.4 0.00 0.00 0.00 79 1013.6
20260506104555 48 26 1.7 10.4 0.00 0.00 0.00 80 1013.5
20260506103058 48 19 3.5 8.7 0.00 0.00 0.00 80 1013.6
20260506101552 48 16 3.5 9.6 0.00 0.00 0.00 79 1013.7
20260506100056 47 5 2.6 7.8 0.00 0.00 0.00 79 1013.7
20260506094554 47 32 2.6 10.4 0.00 0.00 0.00 78 1013.6
20260506093054 48 20 2.6 8.7 0.00 0.00 0.00 78 1013.6
20260506091553 47 360 3.5 12.2 0.00 0.00 0.00 77 1013.4
20260506090052 47 34 3.5 12.2 0.00 0.00 0.00 77 1013.3
20260506084555 47 11 3.5 11.3 0.00 0.00 0.00 77 1013.3
20260506083053 46 14 2.6 8.7 0.00 0.00 0.00 79 1013.4
20260506081554 45 38 1.7 10.4 0.00 0.00 0.00 80 1013.4
20260506073059 45 28 2.6 8.7 0.00 0.00 0.00 80 1013.3
20260506071554 45 29 1.7 10.4 0.00 0.00 0.00 82 1013.3
20260506070115 44 20 1.7 10.4 0.00 0.00 0.00 82 1013.1
20260506061601 43 16 0.9 8.7 0.00 0.00 0.00 84 1013.1
20260506050110 41 352 1.7 7.8 0.00 0.00 0.00 85 1012.9
20260506044601 42 36 3.5 9.6 0.00 0.00 0.00 85 1012.7
20260506043053 42 346 1.7 9.6 0.00 0.00 0.00 84 1012.8
20260506041556 42 19 1.7 8.7 0.00 0.00 0.00 84 1012.8
20260506040100 43 43 1.7 9.6 0.00 0.00 0.00 84 1012.7
20260506034553 43 45 3.5 11.3 0.00 0.00 0.00 83 1012.7
20260506033055 43 20 1.7 9.6 0.00 0.00 0.00 83 1012.8
20260506031600 43 10 2.6 7.8 0.00 0.00 0.00 83 1012.6
20260506030110 44 45 1.7 7.8 0.00 0.00 0.00 83 1012.7
20260506024556 44 23 2.6 8.7 0.00 0.00 0.00 83 1012.8
20260506023056 44 18 1.7 8.7 0.00 0.00 0.00 83 1012.9
20260506021603 44 49 1.7 9.6 0.00 0.00 0.00 82 1012.9
20260506020057 44 5 2.6 8.7 0.00 0.00 0.00 82 1013.0
20260506014559 44 26 2.6 7.8 0.00 0.00 0.00 82 1013.1
20260506013054 45 11 2.6 7.8 0.00 0.00 0.00 82 1013.1
20260506011558 45 17 1.7 11.3 0.00 0.00 0.00 82 1013.2
20260506010059 45 347 1.7 12.2 0.00 0.00 0.00 82 1013.1
20260506004627 46 0 3.5 9.6 0.00 0.00 0.00 82 1013.2
20260506003057 46 30 0.9 8.7 0.00 0.00 0.00 82 1013.3
20260506001600 46 15 1.7 8.7 0.00 0.00 0.00 81 1013.5
20260506000100 47 53 1.7 7.0 0.00 0.00 0.00 80 1013.3
20260505234617 47 40 1.7 9.6 0.00 0.00 0.00 81 1013.5
20260505233058 47 22 0.9 10.4 0.00 0.00 0.00 83 1013.5
20260505231554 47 33 1.7 8.7 0.00 0.00 0.00 83 1013.7
20260505230100 47 125 1.7 7.8 0.00 0.00 0.00 83 1013.7
20260505224557 47 49 0.9 9.6 0.00 0.00 0.00 82 1013.5
20260505223103 48 0 0.9 8.7 0.00 0.00 0.00 82 1013.6
20260505221606 48 86 0.9 8.7 0.00 0.00 0.00 81 1013.6
20260505220138 48 11 2.6 7.8 0.00 0.00 0.00 81 1013.7
20260505214615 48 22 0.9 5.2 0.00 0.00 0.00 80 1013.7
20260505213054 48 15 0.9 4.3 0.00 0.00 0.00 79 1013.6
20260505211611 48 25 2.6 7.0 0.00 0.00 0.00 79 1013.6
20260505210055 49 34 1.7 6.1 0.00 0.00 0.00 79 1013.5
20260505204558 49 26 2.6 10.4 0.00 0.00 0.00 79 1013.5
20260505203054 49 40 2.6 12.2 0.00 0.00 0.00 78 1013.4
20260505201607 50 25 2.6 9.6 0.00 0.00 0.00 77 1013.3
20260505194602 51 30 1.7 8.7 0.00 0.00 0.00 74 1012.7
20260505193056 52 19 0.9 8.7 0.00 0.00 0.00 73 1012.5
20260505191555 52 35 0.9 8.7 0.00 0.00 0.00 72 1012.3
20260505190100 53 21 0.9 10.4 0.00 0.00 0.00 71 1012.1
20260505184557 53 33 3.5 11.3 0.00 0.00 0.00 71 1012.0
20260505183055 53 34 2.6 12.2 0.00 0.00 0.00 71 1011.9
20260505181554 53 25 2.6 7.8 0.00 0.00 0.00 72 1011.7
20260505174558 54 58 2.6 8.7 0.00 0.00 0.00 72 1011.8
20260505173056 55 28 2.6 9.6 0.00 0.00 0.00 73 1011.8
20260505171600 55 28 1.7 7.8 0.00 0.00 0.00 72 1011.7
20260505170100 56 9 1.7 7.0 0.00 0.00 0.00 71 1011.9
20260505164630 56 0 0.0 4.3 0.00 0.00 0.00 68 1011.9
20260505163053 56 23 0.9 7.0 0.00 0.00 0.00 67 1011.8
20260505161559 57 0 0.9 3.5 0.00 0.00 0.00 67 1011.9
20260505160108 57 0 0.9 7.0 0.00 0.00 0.00 67 1011.9
20260505153057 57 0 0.0 7.0 0.00 0.00 0.00 66 1012.0
20260505151611 58 20 0.9 8.7 0.00 0.00 0.00 65 1012.1
20260505140124 59 0 0.9 4.3 0.00 0.00 0.00 64 1012.2
20260505124604 59 93 0.0 2.6 0.00 0.00 0.00 64 1012.4
20260505123057 59 0 2.6 7.8 0.00 0.00 0.00 63 1012.5
20260505121600 58 0 0.9 8.7 0.00 0.00 0.00 65 1012.6
20260505120113 58 309 0.9 4.3 0.00 0.00 0.00 65 1012.5